Погода в Краснотуранске

Россия / Красноярский край     54°19′01″N   91°34′03″E
темп.,
°C
ветер,
м/с
пор.,
м/с
влажн.,
%
обл.,
%
осадки,
мм/ч
давл.,
гПа
погр.,
м
8 марта, пн
пн801:00−10в1281100 0.0 102421
04:00−11всв228349 0.0 102421
07:00−13всв228247 0.0 102521
10:00−9вюв118670 0.0 102160
13:00−4юв138884 0.0 1017305
16:00−1ююв3589100 0.0 1013423
19:00−3ююв2394100 0.0 101329
22:00−5ююв3395100 0.0 101333
9 марта, вт
вт901:00−4ююв3493100 0.0 101371
04:00−3ю4586100 0.0 101375
07:00−4ююз458081 0.0 101842
10:00−2зсз5983100 0.1 1022355
13:00−3зсз71163100 0.1 1025795
16:00−3сз487165 0.0 1026322
19:00−9юв127141 0.0 102821
22:00−10юв227463 0.0 102721
10 марта, ср
ср1001:00−11юв227950 0.0 102521
04:00−11вюв228494 0.0 102421
07:00−11вюв228795 0.0 102321
10:00−8вюв228833 0.0 102170
13:00−3юв358519 0.0 1019401
16:00−1юв358762 0.0 1018383
19:00−3в229181 0.0 101823
22:00−6вюв229285 0.0 101721
11 марта, чт
чт1101:00−8вюв229362 0.0 101421
04:00−7юв2391100 0.0 101127
07:00−6вюв4591100 0.0 101199
10:00−4вюв2488100 0.0 1010224
13:00−1юв3584100 0.0 1011368
16:000вюв2292100 0.0 1012120
19:00−1св1190100 0.0 101521
22:00−1зсз3779100 0.1 1019175
12 марта, пт
пт1201:00−3ююв1292100 1.1 102233
04:00−7ююв2283100 0.1 102321
07:00−10юв238485 0.1 102221
10:00−6вюв3582100 0.0 1017150
13:00−2ю2478100 0.0 1014393
16:000ююз31179100 0.0 1013407
19:00−5сз4783100 0.0 1015103
22:00−7ссз2385100 0.0 101736